Regional Weather Roundup
Issued by NWS

Home | Current Version | Previous Version | Graphics & Text | Print | Product List | Glossary On
Versions: 1 2 3 4 5 6 7 8 9 10 11 12 13 14 15 16 17 18 19 20 21 22 23 24 25 26 27 28
000
ASUS45 KCYS 280710
RWRWY

WYOMING REGIONAL WEATHER ROUNDUP
NATIONAL WEATHER SERVICE CHEYENNE WY
100 AM MDT SUN MAY 28 2017

NOTE:  "FAIR" INDICATES FEW OR NO CLOUDS BELOW 12,000 FEET
WITH NO SIGNIFICANT WEATHER AND/OR OBSTRUCTIONS TO VISIBILITY.

WYZ001-280800-
YELLOWSTONE NATIONAL PARK

CITY           SKY/WX    TMP DP  RH WIND       PRES   REMARKS
LK YELLOWSTONE   N/A     30  29  96 CALM      30.40R
W YELLOWSTONE  NOT AVBL

$$
WYZ002>013-054>058-071-098>099-280800-
NORTHERN WYOMING

CITY           SKY/WX    TMP DP  RH WIND       PRES   REMARKS
JACKSON        FAIR      36  34  93 N3        30.34S
CODY           FAIR      51  35  54 SW8       30.24S
GREYBULL       MOCLDY    54  35  48 SE3       30.17R
WORLAND          N/A     46  38  73 S9        30.19R
SHERIDAN       FAIR      52  39  61 W10       30.14S
BUFFALO        FAIR      52  37  56 W10       30.18F
GILLETTE       FAIR      50  40  68 W13       30.14R
HULETT         FAIR      50  39  66 SW10      30.12S
NEWCASTLE      FAIR      43  41  93 NW7       30.15R

$$
WYZ014>020-022>026-101>103-280800-
CENTRAL WYOMING

CITY           SKY/WX    TMP DP  RH WIND       PRES   REMARKS
BIG PINEY      FAIR      36  30  79 NW3       30.35R
PINEDALE       FAIR      32  30  93 NW6       30.35S WCI  26
DUBOIS         FAIR      37  30  75 NW12      30.34R WCI  30
LANDER         FAIR      50  29  44 SW12      30.26S
RIVERTON       FAIR      48  35  60 W12       30.26S
CASPER         FAIR      41  37  86 SW8       30.23S
DOUGLAS        FAIR      43  38  82 N6        30.21S

$$
WYZ021-027>030-104>119-280800-
SOUTHERN WYOMING

CITY           SKY/WX    TMP DP  RH WIND       PRES   REMARKS
EVANSTON       FAIR      46  31  55 S5        30.35R
KEMMERER         N/A     39  32  75 N9        30.35S WCI  33
FORT BRIDGER   FAIR      45  30  57 W8        30.37S
ROCK SPRINGS   FAIR      46  28  49 SE9       30.32S
DIXON            N/A     37  31  79 NE3       30.35S
RAWLINS        FAIR      36  30  79 CALM      30.31S
SARATOGA       FAIR      34  34 100 S3        30.33S
LARAMIE        FAIR      33  27  78 SE5       30.31R WCI  29
CHEYENNE       FAIR      39  33  79 W9        30.25S WCI  33
TORRINGTON     FAIR      48  39  71 NW9       30.15S
PINE BLUFFS    FAIR      37  36  93 MISG      30.23R

$$




USA.gov is the U.S. government's official web portal to all federal, state and local government web resources and services.